Location: Home
(42.5358°N, 72.7383°W)
Time: 00:05:15
(UTC-05:00)

Vanguard 3 - Pass Details

Date: 01 December 2021
Orbit: 508 x 3260 km, 33.3° (Epoch: 21 January)

Event Time Altitude Azimuth Distance (km) Brightness Sun altitude
Rises 09:25:33 0° 276° (W) 6,521 11.4 18.5°
Reaches altitude 10° 09:30:57 10° 269° (W) 5,088 11.0 19.0°
Maximum altitude 09:42:16 33° 214° (SSW) 2,578 10.3 20.1°
Drops below altitude 10° 09:49:21 10° 153° (SSE) 3,135 12.5 20.7°
Sets 09:51:52 0° 143° (SE) 3,793 12.1 20.9°
